SCP
-0 0 0 0 0 0 0 0 0 0 0 0 0 0 0 0 0 0 0 0 0 0 0 0 0 0 0 0 0 0 0 0 0 0 0 0 0 0 0 0 0 0 0
0 0 0 0 0 0 0 0 0 0 0 0 0 0 0 0 0 0 0 0 0 0 0 0 0 0 0 0 0 0 0 0 0 0 0 0 0 0 0 0 0 0 0
0 0 0 0 0 0 0 0 0 0 0 0 0 0 0 0 0 0 0 0 0 0 0 0 0 0 0 0 0 0 0 0 0 0 0 0 0 0 0 0 0 0 0
0 0 0 0 0 0 0 0 0 0 0 0 0 0 0 0 0 0 0 0 0 0 0 0 0 0 0 0 0 0 0 0 0 0 0 0 0 0 0 0 0 0 0
0 0 0 0 0 0 0 0 0 0 0 0 0 0 0 0 0 0 0 0 0 0 0 0 0 0 0 0 0 0 0 0 0 0 0 0 0 0 0 0 0 0 0
0 0 0 0 1 0 0 0 0 0 0 0 0 0 0 0 0 0 0 0 0 0 0 0 0 0 0 0 0 0 0 0 0 0 0 0 0 0 0 0 0 0 0
0 0 0 0 1 1 1 1 1 0 0 0 0 0 0 0 0 0 0 0 0 0 0 0 0 0 0 0 0 0 0 0 0 0 0 0 0 0 0 1 1 1 0
0 0 0 0 1 1 1 1 1 0 0 0 0 0 0 0 0 0 0 0 0 0 0 0 0 0 0 0 0 0 0 0 0 0 0 0 0 0 1 1 1 1 0
0 0 0 1 1 1 1 1 1 1 0 0 0 0 0 0 0 0 0 0 0 0 0 0 0 0 0 0 0 0 0 0 0 0 0 0 0 0 1 1 1 1 0
0 0 0 0 1 1 1 1 1 1 1 0 1 1 1 1 1 1 0 0 0 0 0 0 0 0 0 0 0 0 0 0 0 0 0 0 0 0 0 1 0 1 0
0 0 0 0 0 1 1 1 1 0 1 1 1 1 1 1 1 1 1 0 0 0 0 0 0 0 0 0 0 0 0 0 0 0 0 0 0 0 0 0 0 0 1
0 0 0 0 0 0 1 0 1 1 1 1 1 1 1 1 1 1 0 0 0 0 0 0 0 0 0 0 0 0 0 0 0 0 0 0 0 0 0 0 0 0 0
0 0 1 1 1 0 0 0 1 1 1 1 1 1 1 1 1 1 1 1 1 0 1 1 1 0 0 0 0 0 0 0 0 0 0 0 0 0 0 0 0 0 0
0 0 1 1 1 0 0 0 0 1 1 1 1 1 1 1 0 0 0 0 0 1 1 1 1 0 0 0 0 0 0 0 0 0 0 0 0 0 0 0 0 0 0
0 0 0 1 1 1 0 0 0 1 0 1 1 1 1 1 0 0 0 0 0 0 0 0 0 0 0 0 0 0 0 0 0 0 0 0 0 0 0 0 0 0 0
0 0 0 1 1 1 1 0 0 1 1 1 1 1 1 1 0 0 0 0 0 0 0 0 0 0 0 0 0 0 0 0 0 0 0 0 0 0 0 0 0 0 0
0 0 0 0 1 1 1 0 1 1 1 1 1 1 1 0 0 0 0 0 0 0 0 0 0 0 0 0 0 0 0 0 0 0 0 0 0 0 0 0 0 0 0
0 0 0 0 1 1 1 1 1 1 2 1 1 1 0 0 0 0 0 0 0 0 0 0 0 0 0 0 0 0 0 0 0 0 0 0 0 0 0 0 0 0 0
0 0 0 0 1 1 1 1 1 2 2 1 1 1 0 0 0 0 0 0 0 0 0 0 0 0 0 0 0 0 0 0 0 0 0 0 0 0 0 0 0 0 0
0 0 0 0 0 1 1 1 1 1 1 1 1 1 1 1 0 0 0 0 0 0 0 0 0 0 0 0 0 0 0 0 0 0 0 0 0 0 0 0 0 0 0
0 0 0 0 0 1 1 1 1 1 1 1 1 1 1 1 0 0 0 0 0 0 0 0 0 0 0 0 0 0 0 0 0 0 0 0 0 0 0 0 0 0 0
0 0 0 0 0 1 1 2 1 1 0 0 1 1 1 1 0 0 0 0 0 0 0 0 0 0 0 0 0 0 0 0 0 0 0 0 0 0 0 0 0 0 0
0 0 0 0 1 1 1 0 0 0 0 0 0 1 0 0 0 0 0 0 0 0 0 0 0 0 0 0 0 0 0 0 0 0 0 0 0 0 0 0 0 0 0
0 0 0 1 1 1 1 0 0 0 0 0 0 0 0 0 0 0 0 0 0 0 0 0 0 0 0 0 0 0 0 0 0 0 0 0 0 0 0 0 0 0 0
0 0 1 1 1 0 0 0 0 0 0 0 0 0 0 0 0 0 0 0 0 0 0 0 0 0 0 0 0 0 0 0 0 0 0 0 0 0 0 0 0 0 0
0 1 1 1 0 0 0 0 0 0 0 0 0 0 0 0 0 0 0 0 0 0 0 0 0 0 0 0 0 0 0 0 0 0 0 0 0 0 0 0 0 0 0
Wind_Speed_500mb
45 47 44 38 32 26 25 23 21 19 19 17 16 15 14 11 9 6 6 8 10 14 16 18 19 19 20 21 22 25 28 30 30 27 25 19 17 15 12 8 8 13 16
47 54 47 38 35 29 27 24 22 20 18 18 16 14 12 11 9 8 7 6 7 9 11 12 14 14 14 16 19 20 23 26 28 31 30 26 21 16 15 13 13 16 16
44 52 49 41 36 30 29 27 22 20 19 18 16 15 13 10 6 5 4 2 2 4 6 7 9 10 10 11 12 16 18 21 23 25 30 31 26 22 20 19 19 22 19
44 47 46 41 37 34 31 30 26 24 23 21 19 16 12 8 5 2 1 1 1 3 5 8 9 9 11 13 14 14 15 15 16 19 22 29 31 28 25 25 24 22 22
37 31 37 41 40 39 36 35 31 29 28 26 23 19 14 9 5 1 4 6 6 5 6 8 10 12 13 14 14 15 15 14 12 13 16 22 31 35 32 29 26 26 23
30 28 39 44 46 43 39 39 37 36 34 31 28 24 18 13 9 4 4 8 10 9 8 9 12 13 17 17 17 18 16 14 14 12 12 17 26 38 39 33 29 23 24
28 33 39 47 47 44 43 44 43 43 41 37 34 30 25 21 16 10 6 7 12 14 13 13 14 15 20 25 25 24 23 22 20 14 13 16 24 35 36 34 26 25 22
23 27 32 41 45 49 51 51 49 48 47 44 42 39 34 29 23 17 11 8 12 15 16 17 18 21 24 28 31 32 29 30 28 24 21 18 23 32 31 30 21 20 19
30 37 37 39 40 51 58 57 55 55 53 51 49 47 42 37 31 24 18 13 13 15 15 16 18 22 26 28 29 33 36 35 37 33 26 26 27 30 29 29 24 21 23
45 47 47 45 47 56 63 64 61 60 59 57 56 54 50 44 38 32 25 18 16 15 15 14 11 17 24 26 28 30 32 36 39 38 31 26 29 30 32 34 31 25 24
53 57 57 58 57 62 64 69 67 64 65 62 61 60 57 55 48 40 31 23 19 17 17 13 12 15 17 17 22 26 28 29 30 32 36 32 32 37 35 35 35 31 23
59 57 62 65 67 71 70 72 75 70 72 71 70 70 68 65 54 46 36 29 23 20 22 20 18 18 15 15 20 26 26 22 20 21 24 33 36 38 41 36 39 36 30
55 55 53 57 67 73 75 76 80 78 81 79 76 77 76 71 62 56 46 35 29 25 29 24 23 24 20 18 18 16 9 13 14 16 19 24 39 42 44 38 34 41 33
59 59 55 47 54 65 78 82 84 82 84 87 83 82 82 79 70 63 52 40 36 32 33 29 26 26 26 23 21 20 19 17 19 17 17 18 26 36 37 35 32 35 31
50 54 61 60 60 62 71 76 74 82 77 75 89 84 83 84 77 66 56 48 42 38 39 32 30 29 31 29 29 26 27 27 26 25 21 20 19 30 35 38 37 38 32
78 75 68 70 67 68 67 63 57 66 73 74 89 86 80 83 76 65 59 53 45 43 39 34 33 33 33 35 35 31 29 33 36 35 32 30 26 29 37 33 39 37 34
82 81 73 67 58 67 74 54 51 54 70 77 81 86 73 73 68 63 62 52 45 41 40 38 37 37 38 39 42 38 35 36 39 36 32 34 33 30 31 33 32 36 35
85 85 68 67 70 60 63 56 51 56 64 71 80 79 61 51 46 56 53 47 39 36 41 42 41 39 41 43 46 45 45 41 42 40 35 28 28 28 27 31 33 32 31
82 77 81 78 67 60 60 54 56 64 64 72 70 65 51 43 45 53 47 41 33 35 39 41 39 41 44 46 50 48 47 47 44 42 37 32 30 31 29 23 29 27 28
78 73 77 60 58 62 58 57 64 70 66 66 62 50 42 42 44 48 34 34 36 33 34 36 40 41 43 43 44 44 38 44 42 42 38 32 29 32 34 27 26 22 13
89 82 62 52 59 67 57 63 70 68 62 58 49 42 38 36 38 33 28 38 36 29 27 31 37 43 46 40 39 40 36 41 41 40 36 33 29 35 37 36 27 21 18
59 56 55 61 59 68 59 60 65 64 58 46 43 41 41 41 30 34 30 33 31 30 33 35 39 45 45 37 34 36 28 35 39 43 40 33 30 33 39 41 37 27 20
68 54 58 54 48 57 60 63 60 45 38 41 42 42 46 33 20 22 24 26 28 36 35 37 40 39 37 31 30 27 11 14 16 36 42 37 35 35 38 32 36 36 27
68 63 56 50 46 56 56 51 52 50 50 48 39 29 27 21 21 23 23 28 33 37 36 38 30 29 27 27 25 31 27 6 12 7 23 37 35 33 34 32 33 32 34
47 51 52 47 46 45 40 37 40 42 44 37 34 28 24 23 27 31 32 33 32 34 36 29 25 22 21 24 29 28 36 35 28 17 8 18 37 37 37 35 33 30 31
42 56 49 46 37 33 30 28 31 37 42 40 34 29 29 29 32 30 33 33 35 30 22 19 18 18 20 23 26 30 33 34 35 35 27 10 29 35 32 30 30 31 33
Wind_Direction_500mb
183 181 184 181 178 171 171 169 159 140 132 130 129 130 129 130 143 167 215 235 234 232 233 237 240 241 243 245 241 240 239 238 237 238 242 240 236 216 218 216 192 174 162
171 182 184 185 183 179 178 179 171 158 151 150 147 144 141 140 139 148 170 207 232 233 229 232 237 241 244 246 250 249 245 243 241 236 234 239 236 224 223 217 205 185 181
178 180 186 190 187 186 187 189 186 178 175 171 164 168 160 150 142 142 149 153 220 248 247 233 226 237 251 260 256 253 249 249 247 243 235 229 229 222 219 222 220 210 204
185 184 189 193 193 195 198 198 199 199 194 189 186 185 179 171 167 183 107 5 247 228 233 233 240 249 261 268 270 268 259 251 247 246 239 230 220 216 218 221 221 221 218
182 193 197 201 199 201 205 206 208 208 208 206 200 200 198 199 176 279 343 330 312 289 255 249 253 255 262 271 273 268 261 258 252 246 241 231 220 209 212 217 218 220 218
182 204 208 209 205 205 209 213 216 216 216 215 215 212 212 216 212 224 309 328 317 303 286 271 266 264 268 264 265 275 266 259 261 253 252 240 219 208 213 220 219 216 222
195 206 212 214 212 215 217 220 221 221 222 221 223 222 219 220 221 223 253 309 318 304 291 286 283 270 260 266 268 266 265 262 254 253 255 241 226 208 214 220 219 218 222
217 217 220 220 223 224 223 226 226 226 227 226 227 226 223 223 225 227 236 275 305 300 295 294 301 294 277 269 269 269 263 257 249 259 253 243 230 216 215 212 215 225 222
225 230 231 225 230 232 226 228 229 231 232 231 232 232 229 227 230 232 236 254 287 292 292 298 304 298 285 275 268 265 263 255 254 258 250 232 226 221 213 214 211 233 244
224 229 235 230 237 235 232 227 231 234 235 236 236 236 234 233 234 236 238 249 276 283 280 292 302 309 297 280 273 267 262 257 252 250 239 230 226 222 214 216 217 230 256
228 235 238 238 243 241 237 235 231 234 235 237 239 240 237 236 235 237 241 248 269 274 274 271 285 312 313 296 286 275 264 260 252 247 239 233 227 221 221 221 220 223 229
237 240 243 244 243 241 240 240 235 235 237 235 239 240 238 239 237 240 241 245 261 259 262 261 271 286 305 306 301 293 267 262 254 246 241 229 224 226 225 228 227 226 231
252 254 247 244 243 244 242 243 242 237 240 237 240 242 242 241 237 238 239 243 256 253 258 263 270 272 277 285 300 299 271 250 248 249 245 234 233 229 227 233 231 226 229
255 269 263 261 247 243 239 242 246 244 244 241 240 244 242 241 239 239 240 245 253 252 255 257 261 265 269 267 286 274 268 269 259 265 249 250 239 223 221 225 222 215 226
297 297 272 273 265 253 240 240 247 249 252 255 242 245 244 245 241 240 243 246 250 252 253 255 259 264 266 262 273 272 264 267 264 266 262 257 246 225 222 223 223 223 227
297 293 281 274 267 258 258 245 247 249 252 253 245 245 246 248 243 244 247 246 249 251 255 256 258 265 274 274 272 268 270 270 268 266 264 251 254 250 237 236 223 220 223
295 294 277 270 268 268 263 242 241 248 252 252 251 246 247 250 245 247 246 246 247 251 256 253 256 263 267 275 275 270 270 276 267 258 259 260 255 261 237 234 215 218 226
285 292 282 268 272 266 247 246 243 250 252 251 252 245 243 242 241 239 238 235 240 254 259 259 260 262 272 273 271 272 268 266 258 258 248 252 243 241 237 227 220 224 221
286 287 286 273 269 255 238 242 244 250 251 249 253 240 235 231 234 233 216 222 242 258 263 260 266 270 273 272 270 270 262 257 255 249 249 249 240 232 231 225 227 227 235
287 289 287 263 259 243 242 242 241 245 248 249 250 233 232 231 234 225 211 229 242 256 263 266 266 274 278 277 275 264 255 254 248 244 245 248 246 232 222 213 210 210 236
284 282 274 247 249 240 241 237 239 242 243 243 233 225 222 228 234 211 225 234 242 263 283 276 274 277 281 277 274 261 248 249 245 238 241 245 242 227 224 210 210 222 226
290 279 255 244 251 247 237 239 239 239 235 233 221 217 221 222 221 229 238 231 245 271 279 281 281 278 276 270 261 257 259 249 242 235 239 239 238 224 218 214 221 223 221
293 262 240 245 243 236 235 234 234 230 216 201 199 209 211 213 221 219 230 234 262 273 277 287 284 277 274 265 255 237 203 224 235 239 241 239 230 223 218 221 215 215 222
280 247 243 235 242 236 233 232 229 223 204 199 204 213 208 219 207 223 237 251 272 266 280 288 273 267 259 250 236 224 220 213 199 232 233 229 222 214 211 214 208 220 217
271 243 232 236 234 230 230 223 222 216 210 201 195 198 217 211 217 225 235 250 260 273 281 268 265 263 255 241 239 230 223 228 240 258 292 216 208 206 209 210 212 218 209
262 234 226 219 213 210 206 202 202 197 195 195 194 197 201 216 226 230 238 256 270 274 264 262 260 259 251 242 235 230 228 230 234 233 236 229 202 205 207 211 211 216 223
Wind_Speed_850mb
45 47 44 38 32 26 25 23 21 19 19 17 16 15 14 11 9 6 6 8 10 14 16 18 19 19 20 21 22 25 28 30 30 27 25 19 17 15 12 8 8 13 16
47 54 47 38 35 29 27 24 22 20 18 18 16 14 12 11 9 8 7 6 7 9 11 12 14 14 14 16 19 20 23 26 28 31 30 26 21 16 15 13 13 16 16
44 52 49 41 36 30 29 27 22 20 19 18 16 15 13 10 6 5 4 2 2 4 6 7 9 10 10 11 12 16 18 21 23 25 30 31 26 22 20 19 19 22 19
44 47 46 41 37 34 31 30 26 24 23 21 19 16 12 8 5 2 1 1 1 3 5 8 9 9 11 13 14 14 15 15 16 19 22 29 31 28 25 25 24 22 22
37 31 37 41 40 39 36 35 31 29 28 26 23 19 14 9 5 1 4 6 6 5 6 8 10 12 13 14 14 15 15 14 12 13 16 22 31 35 32 29 26 26 23
30 28 39 44 46 43 39 39 37 36 34 31 28 24 18 13 9 4 4 8 10 9 8 9 12 13 17 17 17 18 16 14 14 12 12 17 26 38 39 33 29 23 24
28 33 39 47 47 44 43 44 43 43 41 37 34 30 25 21 16 10 6 7 12 14 13 13 14 15 20 25 25 24 23 22 20 14 13 16 24 35 36 34 26 25 22
23 27 32 41 45 49 51 51 49 48 47 44 42 39 34 29 23 17 11 8 12 15 16 17 18 21 24 28 31 32 29 30 28 24 21 18 23 32 31 30 21 20 19
30 37 37 39 40 51 58 57 55 55 53 51 49 47 42 37 31 24 18 13 13 15 15 16 18 22 26 28 29 33 36 35 37 33 26 26 27 30 29 29 24 21 23
45 47 47 45 47 56 63 64 61 60 59 57 56 54 50 44 38 32 25 18 16 15 15 14 11 17 24 26 28 30 32 36 39 38 31 26 29 30 32 34 31 25 24
53 57 57 58 57 62 64 69 67 64 65 62 61 60 57 55 48 40 31 23 19 17 17 13 12 15 17 17 22 26 28 29 30 32 36 32 32 37 35 35 35 31 23
59 57 62 65 67 71 70 72 75 70 72 71 70 70 68 65 54 46 36 29 23 20 22 20 18 18 15 15 20 26 26 22 20 21 24 33 36 38 41 36 39 36 30
55 55 53 57 67 73 75 76 80 78 81 79 76 77 76 71 62 56 46 35 29 25 29 24 23 24 20 18 18 16 9 13 14 16 19 24 39 42 44 38 34 41 33
59 59 55 47 54 65 78 82 84 82 84 87 83 82 82 79 70 63 52 40 36 32 33 29 26 26 26 23 21 20 19 17 19 17 17 18 26 36 37 35 32 35 31
50 54 61 60 60 62 71 76 74 82 77 75 89 84 83 84 77 66 56 48 42 38 39 32 30 29 31 29 29 26 27 27 26 25 21 20 19 30 35 38 37 38 32
78 75 68 70 67 68 67 63 57 66 73 74 89 86 80 83 76 65 59 53 45 43 39 34 33 33 33 35 35 31 29 33 36 35 32 30 26 29 37 33 39 37 34
82 81 73 67 58 67 74 54 51 54 70 77 81 86 73 73 68 63 62 52 45 41 40 38 37 37 38 39 42 38 35 36 39 36 32 34 33 30 31 33 32 36 35
85 85 68 67 70 60 63 56 51 56 64 71 80 79 61 51 46 56 53 47 39 36 41 42 41 39 41 43 46 45 45 41 42 40 35 28 28 28 27 31 33 32 31
82 77 81 78 67 60 60 54 56 64 64 72 70 65 51 43 45 53 47 41 33 35 39 41 39 41 44 46 50 48 47 47 44 42 37 32 30 31 29 23 29 27 28
78 73 77 60 58 62 58 57 64 70 66 66 62 50 42 42 44 48 34 34 36 33 34 36 40 41 43 43 44 44 38 44 42 42 38 32 29 32 34 27 26 22 13
89 82 62 52 59 67 57 63 70 68 62 58 49 42 38 36 38 33 28 38 36 29 27 31 37 43 46 40 39 40 36 41 41 40 36 33 29 35 37 36 27 21 18
59 56 55 61 59 68 59 60 65 64 58 46 43 41 41 41 30 34 30 33 31 30 33 35 39 45 45 37 34 36 28 35 39 43 40 33 30 33 39 41 37 27 20
68 54 58 54 48 57 60 63 60 45 38 41 42 42 46 33 20 22 24 26 28 36 35 37 40 39 37 31 30 27 11 14 16 36 42 37 35 35 38 32 36 36 27
68 63 56 50 46 56 56 51 52 50 50 48 39 29 27 21 21 23 23 28 33 37 36 38 30 29 27 27 25 31 27 6 12 7 23 37 35 33 34 32 33 32 34
47 51 52 47 46 45 40 37 40 42 44 37 34 28 24 23 27 31 32 33 32 34 36 29 25 22 21 24 29 28 36 35 28 17 8 18 37 37 37 35 33 30 31
42 56 49 46 37 33 30 28 31 37 42 40 34 29 29 29 32 30 33 33 35 30 22 19 18 18 20 23 26 30 33 34 35 35 27 10 29 35 32 30 30 31 33
Wind_Direction_850mb
183 181 184 181 178 171 171 169 159 140 132 130 129 130 129 130 143 167 215 235 234 232 233 237 240 241 243 245 241 240 239 238 237 238 242 240 236 216 218 216 192 174 162
171 182 184 185 183 179 178 179 171 158 151 150 147 144 141 140 139 148 170 207 232 233 229 232 237 241 244 246 250 249 245 243 241 236 234 239 236 224 223 217 205 185 181
178 180 186 190 187 186 187 189 186 178 175 171 164 168 160 150 142 142 149 153 220 248 247 233 226 237 251 260 256 253 249 249 247 243 235 229 229 222 219 222 220 210 204
185 184 189 193 193 195 198 198 199 199 194 189 186 185 179 171 167 183 107 5 247 228 233 233 240 249 261 268 270 268 259 251 247 246 239 230 220 216 218 221 221 221 218
182 193 197 201 199 201 205 206 208 208 208 206 200 200 198 199 176 279 343 330 312 289 255 249 253 255 262 271 273 268 261 258 252 246 241 231 220 209 212 217 218 220 218
182 204 208 209 205 205 209 213 216 216 216 215 215 212 212 216 212 224 309 328 317 303 286 271 266 264 268 264 265 275 266 259 261 253 252 240 219 208 213 220 219 216 222
195 206 212 214 212 215 217 220 221 221 222 221 223 222 219 220 221 223 253 309 318 304 291 286 283 270 260 266 268 266 265 262 254 253 255 241 226 208 214 220 219 218 222
217 217 220 220 223 224 223 226 226 226 227 226 227 226 223 223 225 227 236 275 305 300 295 294 301 294 277 269 269 269 263 257 249 259 253 243 230 216 215 212 215 225 222
225 230 231 225 230 232 226 228 229 231 232 231 232 232 229 227 230 232 236 254 287 292 292 298 304 298 285 275 268 265 263 255 254 258 250 232 226 221 213 214 211 233 244
224 229 235 230 237 235 232 227 231 234 235 236 236 236 234 233 234 236 238 249 276 283 280 292 302 309 297 280 273 267 262 257 252 250 239 230 226 222 214 216 217 230 256
228 235 238 238 243 241 237 235 231 234 235 237 239 240 237 236 235 237 241 248 269 274 274 271 285 312 313 296 286 275 264 260 252 247 239 233 227 221 221 221 220 223 229
237 240 243 244 243 241 240 240 235 235 237 235 239 240 238 239 237 240 241 245 261 259 262 261 271 286 305 306 301 293 267 262 254 246 241 229 224 226 225 228 227 226 231
252 254 247 244 243 244 242 243 242 237 240 237 240 242 242 241 237 238 239 243 256 253 258 263 270 272 277 285 300 299 271 250 248 249 245 234 233 229 227 233 231 226 229
255 269 263 261 247 243 239 242 246 244 244 241 240 244 242 241 239 239 240 245 253 252 255 257 261 265 269 267 286 274 268 269 259 265 249 250 239 223 221 225 222 215 226
297 297 272 273 265 253 240 240 247 249 252 255 242 245 244 245 241 240 243 246 250 252 253 255 259 264 266 262 273 272 264 267 264 266 262 257 246 225 222 223 223 223 227
297 293 281 274 267 258 258 245 247 249 252 253 245 245 246 248 243 244 247 246 249 251 255 256 258 265 274 274 272 268 270 270 268 266 264 251 254 250 237 236 223 220 223
295 294 277 270 268 268 263 242 241 248 252 252 251 246 247 250 245 247 246 246 247 251 256 253 256 263 267 275 275 270 270 276 267 258 259 260 255 261 237 234 215 218 226
285 292 282 268 272 266 247 246 243 250 252 251 252 245 243 242 241 239 238 235 240 254 259 259 260 262 272 273 271 272 268 266 258 258 248 252 243 241 237 227 220 224 221
286 287 286 273 269 255 238 242 244 250 251 249 253 240 235 231 234 233 216 222 242 258 263 260 266 270 273 272 270 270 262 257 255 249 249 249 240 232 231 225 227 227 235
287 289 287 263 259 243 242 242 241 245 248 249 250 233 232 231 234 225 211 229 242 256 263 266 266 274 278 277 275 264 255 254 248 244 245 248 246 232 222 213 210 210 236
284 282 274 247 249 240 241 237 239 242 243 243 233 225 222 228 234 211 225 234 242 263 283 276 274 277 281 277 274 261 248 249 245 238 241 245 242 227 224 210 210 222 226
290 279 255 244 251 247 237 239 239 239 235 233 221 217 221 222 221 229 238 231 245 271 279 281 281 278 276 270 261 257 259 249 242 235 239 239 238 224 218 214 221 223 221
293 262 240 245 243 236 235 234 234 230 216 201 199 209 211 213 221 219 230 234 262 273 277 287 284 277 274 265 255 237 203 224 235 239 241 239 230 223 218 221 215 215 222
280 247 243 235 242 236 233 232 229 223 204 199 204 213 208 219 207 223 237 251 272 266 280 288 273 267 259 250 236 224 220 213 199 232 233 229 222 214 211 214 208 220 217
271 243 232 236 234 230 230 223 222 216 210 201 195 198 217 211 217 225 235 250 260 273 281 268 265 263 255 241 239 230 223 228 240 258 292 216 208 206 209 210 212 218 209
262 234 226 219 213 210 206 202 202 197 195 195 194 197 201 216 226 230 238 256 270 274 264 262 260 259 251 242 235 230 228 230 234 233 236 229 202 205 207 211 211 216 223